Time,TemperatureF,DewpointF,PressureIn,WindDirection,WindDirectionDegrees,WindSpeedMPH,WindSpeedGustMPH,Humidity,HourlyPrecipIn,Conditions,Clouds,dailyrainin,SoftwareType,DateUTC
2013-02-27 00:01:00,14.0,12.0,-100.00,SW,226,10.0,12.0,91,0.00,,,-99.99,,2013-02-27 07:01:00,
2013-02-27 00:12:00,14.0,11.0,-100.00,SW,224,11.0,12.0,91,0.00,,,-99.99,,2013-02-27 07:12:00,
2013-02-27 00:21:00,13.0,11.0,-100.00,SW,222,9.0,12.0,92,0.00,,,-99.99,,2013-02-27 07:21:00,
2013-02-27 00:32:00,14.0,12.0,-100.00,SW,224,11.0,13.0,91,0.00,,,-99.99,,2013-02-27 07:32:00,
2013-02-27 00:41:00,14.0,11.0,-100.00,SW,223,12.0,14.0,88,0.00,,,-99.99,,2013-02-27 07:41:00,
2013-02-27 00:51:00,14.0,11.0,-100.00,SW,224,12.0,15.0,87,0.00,,,-99.99,,2013-02-27 07:51:00,
2013-02-27 01:01:00,14.0,11.0,-100.00,SW,223,12.0,15.0,87,0.00,,,-99.99,,2013-02-27 08:01:00,
2013-02-27 01:11:00,14.0,10.0,-100.00,SW,224,12.0,14.0,87,0.00,,,-99.99,,2013-02-27 08:11:00,
2013-02-27 01:21:00,14.0,10.0,-100.00,SW,229,12.0,14.0,85,0.00,,,-99.99,,2013-02-27 08:21:00,
2013-02-27 01:32:00,14.0,10.0,-100.00,SW,226,12.0,14.0,85,0.00,,,-99.99,,2013-02-27 08:32:00,
2013-02-27 01:41:00,14.0,10.0,-100.00,SW,226,12.0,15.0,84,0.00,,,-99.99,,2013-02-27 08:41:00,
2013-02-27 01:52:00,14.0,10.0,-100.00,SW,227,12.0,14.0,84,0.00,,,-99.99,,2013-02-27 08:52:00,
2013-02-27 02:02:00,14.0,10.0,-100.00,SW,224,12.0,16.0,84,0.00,,,-99.99,,2013-02-27 09:02:00,
2013-02-27 02:11:00,14.0,9.0,-100.00,SW,226,13.0,16.0,83,0.00,,,-99.99,,2013-02-27 09:11:00,
2013-02-27 02:21:00,13.0,8.0,-100.00,SW,219,13.0,15.0,81,0.00,,,-99.99,,2013-02-27 09:21:00,
2013-02-27 02:32:00,12.0,7.0,-100.00,SW,220,12.0,14.0,81,0.00,,,-99.99,,2013-02-27 09:32:00,
2013-02-27 02:41:00,11.0,6.0,-100.00,SW,219,12.0,14.0,81,0.00,,,-99.99,,2013-02-27 09:41:00,
2013-02-27 02:51:00,10.0,5.0,-100.00,SW,217,12.0,14.0,82,0.00,,,-99.99,,2013-02-27 09:51:00,
2013-02-27 03:01:00,10.0,5.0,-100.00,SW,217,12.0,16.0,80,0.00,,,-99.99,,2013-02-27 10:01:00,
2013-02-27 03:12:00,10.0,5.0,-100.00,SW,216,14.0,16.0,81,0.00,,,-99.99,,2013-02-27 10:12:00,
2013-02-27 03:21:00,10.0,6.0,-100.00,SSW,213,16.0,18.0,82,0.00,,,-99.99,,2013-02-27 10:21:00,
2013-02-27 03:32:00,11.0,6.0,-100.00,SW,215,16.0,18.0,81,0.00,,,-99.99,,2013-02-27 10:32:00,
2013-02-27 03:42:00,11.0,6.0,-100.00,SW,215,17.0,19.0,81,0.00,,,-99.99,,2013-02-27 10:42:00,
2013-02-27 03:52:00,11.0,6.0,-100.00,SW,216,16.0,19.0,79,0.00,,,-99.99,,2013-02-27 10:52:00,
2013-02-27 04:02:00,12.0,7.0,-100.00,SW,216,17.0,21.0,80,0.00,,,-99.99,,2013-02-27 11:02:00,
2013-02-27 04:12:00,11.0,6.0,-100.00,SSW,213,18.0,21.0,82,0.00,,,-99.99,,2013-02-27 11:12:00,
2013-02-27 04:22:00,11.0,7.0,-100.00,SSW,210,18.0,22.0,83,0.00,,,-99.99,,2013-02-27 11:22:00,
2013-02-27 04:32:00,11.0,7.0,-100.00,SSW,210,19.0,22.0,83,0.00,,,-99.99,,2013-02-27 11:32:00,
2013-02-27 04:41:00,11.0,7.0,-100.00,SSW,212,19.0,22.0,81,0.00,,,-99.99,,2013-02-27 11:41:00,
2013-02-27 04:52:00,11.0,7.0,-100.00,SSW,210,20.0,24.0,84,0.00,,,-99.99,,2013-02-27 11:52:00,
2013-02-27 05:02:00,10.0,6.0,-100.00,SSW,210,19.0,23.0,85,0.00,,,-99.99,,2013-02-27 12:02:00,
2013-02-27 05:12:00,10.0,6.0,-100.00,SSW,210,20.0,24.0,83,0.00,,,-99.99,,2013-02-27 12:12:00,
2013-02-27 05:22:00,10.0,6.0,-100.00,SSW,210,19.0,21.0,83,0.00,,,-99.99,,2013-02-27 12:22:00,
2013-02-27 05:32:00,10.0,6.0,-100.00,SSW,210,19.0,22.0,82,0.00,,,-99.99,,2013-02-27 12:32:00,
2013-02-27 05:42:00,10.0,6.0,-100.00,SSW,210,19.0,23.0,83,0.00,,,-99.99,,2013-02-27 12:42:00,
2013-02-27 05:52:00,11.0,6.0,-100.00,SSW,212,19.0,24.0,80,0.00,,,-99.99,,2013-02-27 12:52:00,
2013-02-27 06:02:00,11.0,6.0,-100.00,SSW,210,19.0,23.0,80,0.00,,,-99.99,,2013-02-27 13:02:00,
2013-02-27 06:11:00,10.0,5.0,-100.00,SSW,209,19.0,24.0,81,0.00,,,-99.99,,2013-02-27 13:11:00,
2013-02-27 06:22:00,9.0,5.0,-100.00,SSW,205,19.0,24.0,81,0.00,,,-99.99,,2013-02-27 13:22:00,
2013-02-27 06:32:00,10.0,6.0,-100.00,SSW,206,21.0,25.0,81,0.00,,,-99.99,,2013-02-27 13:32:00,
2013-02-27 06:42:00,10.0,5.0,-100.00,SSW,209,19.0,22.0,80,0.00,,,-99.99,,2013-02-27 13:42:00,
2013-02-27 06:52:00,10.0,5.0,-100.00,SSW,208,19.0,23.0,80,0.00,,,-99.99,,2013-02-27 13:52:00,
2013-02-27 07:02:00,11.0,6.0,-100.00,SSW,210,19.0,24.0,78,0.00,,,-99.99,,2013-02-27 14:02:00,
2013-02-27 07:12:00,11.0,5.0,-100.00,SSW,210,19.0,23.0,79,0.00,,,-99.99,,2013-02-27 14:12:00,
2013-02-27 07:21:00,11.0,5.0,-100.00,SSW,210,19.0,24.0,78,0.00,,,-99.99,,2013-02-27 14:21:00,
2013-02-27 07:32:00,11.0,6.0,-100.00,SSW,210,19.0,23.0,79,0.00,,,-99.99,,2013-02-27 14:32:00,
2013-02-27 07:42:00,11.0,6.0,-100.00,SSW,205,20.0,24.0,79,0.00,,,-99.99,,2013-02-27 14:42:00,
2013-02-27 07:52:00,11.0,6.0,-100.00,SSW,202,21.0,24.0,78,0.00,,,-99.99,,2013-02-27 14:52:00,
2013-02-27 08:02:00,11.0,6.0,-100.00,SSW,206,21.0,24.0,79,0.00,,,-99.99,,2013-02-27 15:02:00,
2013-02-27 08:22:00,11.0,6.0,-100.00,SSW,206,19.0,24.0,79,0.00,,,-99.99,,2013-02-27 15:22:00,
2013-02-27 08:32:00,11.0,6.0,-100.00,SSW,208,18.0,22.0,78,0.00,,,-99.99,,2013-02-27 15:32:00,
2013-02-27 08:42:00,11.0,6.0,-100.00,SSW,206,18.0,22.0,78,0.00,,,-99.99,,2013-02-27 15:42:00,
2013-02-27 08:52:00,13.0,6.0,-100.00,SSW,210,17.0,24.0,76,0.00,,,-99.99,,2013-02-27 15:52:00,
2013-02-27 09:02:00,13.0,7.0,-100.00,SSW,210,19.0,24.0,76,0.00,,,-99.99,,2013-02-27 16:02:00,
2013-02-27 09:11:00,13.0,7.0,-100.00,SSW,209,20.0,24.0,76,0.00,,,-99.99,,2013-02-27 16:11:00,
2013-02-27 09:22:00,13.0,7.0,-100.00,SSW,205,18.0,24.0,76,0.00,,,-99.99,,2013-02-27 16:22:00,
2013-02-27 09:32:00,14.0,7.0,-100.00,SSW,213,18.0,24.0,75,0.00,,,-99.99,,2013-02-27 16:32:00,
2013-02-27 09:42:00,13.0,7.0,-100.00,SW,217,21.0,25.0,77,0.00,,,-99.99,,2013-02-27 16:42:00,
2013-02-27 09:52:00,14.0,7.0,-100.00,SW,223,18.0,23.0,74,0.00,,,-99.99,,2013-02-27 16:52:00,
2013-02-27 10:02:00,15.0,7.0,-100.00,SW,215,19.0,23.0,70,0.00,,,-99.99,,2013-02-27 17:02:00,
2013-02-27 10:11:00,15.0,7.0,-100.00,SW,215,19.0,24.0,70,0.00,,,-99.99,,2013-02-27 17:11:00,
2013-02-27 10:21:00,15.0,7.0,-100.00,SW,222,22.0,27.0,70,0.00,,,-99.99,,2013-02-27 17:21:00,
2013-02-27 10:32:00,14.0,8.0,-100.00,SW,220,21.0,25.0,74,0.00,,,-99.99,,2013-02-27 17:32:00,
2013-02-27 10:42:00,14.0,8.0,-100.00,SW,222,20.0,25.0,74,0.00,,,-99.99,,2013-02-27 17:42:00,
2013-02-27 10:52:00,14.0,7.0,-100.00,SW,230,21.0,26.0,72,0.00,,,-99.99,,2013-02-27 17:52:00,
2013-02-27 11:01:00,15.0,7.0,-100.00,SW,223,22.0,29.0,71,0.00,,,-99.99,,2013-02-27 18:01:00,
2013-02-27 11:11:00,15.0,7.0,-100.00,SW,227,24.0,28.0,71,0.00,,,-99.99,,2013-02-27 18:11:00,
2013-02-27 11:22:00,15.0,7.0,-100.00,SW,234,23.0,29.0,68,0.00,,,-99.99,,2013-02-27 18:22:00,
2013-02-27 11:32:00,15.0,8.0,-100.00,WSW,244,22.0,29.0,71,0.00,,,-99.99,,2013-02-27 18:32:00,
2013-02-27 11:42:00,15.0,7.0,-100.00,WSW,253,21.0,24.0,69,0.00,,,-99.99,,2013-02-27 18:42:00,
2013-02-27 11:51:00,16.0,7.0,-100.00,WSW,247,18.0,25.0,69,0.00,,,-99.99,,2013-02-27 18:51:00,
2013-02-27 12:01:00,15.0,8.0,-100.00,WSW,250,21.0,27.0,71,0.00,,,-99.99,,2013-02-27 19:01:00,
2013-02-27 12:11:00,15.0,8.0,-100.00,WSW,251,21.0,27.0,75,0.00,,,-99.99,,2013-02-27 19:11:00,
2013-02-27 12:21:00,15.0,9.0,-100.00,WSW,256,22.0,27.0,78,0.00,,,-99.99,,2013-02-27 19:21:00,
2013-02-27 12:32:00,15.0,7.0,-100.00,WSW,244,22.0,31.0,71,0.00,,,-99.99,,2013-02-27 19:32:00,
2013-02-27 12:42:00,15.0,8.0,-100.00,SW,236,24.0,31.0,71,0.00,,,-99.99,,2013-02-27 19:42:00,
2013-02-27 12:52:00,15.0,8.0,-100.00,SW,233,25.0,31.0,72,0.00,,,-99.99,,2013-02-27 19:52:00,
2013-02-27 13:01:00,15.0,8.0,-100.00,SW,233,27.0,35.0,72,0.00,,,-99.99,,2013-02-27 20:01:00,
2013-02-27 13:11:00,15.0,8.0,-100.00,SW,234,27.0,34.0,75,0.00,,,-99.99,,2013-02-27 20:11:00,
2013-02-27 13:21:00,15.0,7.0,-100.00,SW,233,26.0,32.0,71,0.00,,,-99.99,,2013-02-27 20:21:00,
2013-02-27 13:32:00,15.0,8.0,-100.00,SW,236,27.0,32.0,75,0.00,,,-99.99,,2013-02-27 20:32:00,
2013-02-27 13:42:00,15.0,7.0,-100.00,WSW,240,26.0,32.0,71,0.00,,,-99.99,,2013-02-27 20:42:00,
2013-02-27 13:52:00,15.0,6.0,-100.00,SW,236,24.0,32.0,66,0.00,,,-99.99,,2013-02-27 20:52:00,
2013-02-27 14:02:00,15.0,6.0,-100.00,SW,227,27.0,34.0,67,0.00,,,-99.99,,2013-02-27 21:02:00,
2013-02-27 14:11:00,15.0,7.0,-100.00,SW,230,26.0,34.0,69,0.00,,,-99.99,,2013-02-27 21:11:00,
2013-02-27 14:21:00,16.0,6.0,-100.00,SW,232,23.0,32.0,64,0.00,,,-99.99,,2013-02-27 21:21:00,
2013-02-27 14:32:00,15.0,7.0,-100.00,SW,230,26.0,32.0,69,0.00,,,-99.99,,2013-02-27 21:32:00,
2013-02-27 14:42:00,15.0,6.0,-100.00,SW,232,27.0,34.0,67,0.00,,,-99.99,,2013-02-27 21:42:00,
2013-02-27 14:51:00,15.0,8.0,-100.00,SW,233,26.0,35.0,72,0.00,,,-99.99,,2013-02-27 21:51:00,
2013-02-27 15:01:00,15.0,7.0,-100.00,SW,233,27.0,37.0,72,0.00,,,-99.99,,2013-02-27 22:01:00,
2013-02-27 15:11:00,15.0,7.0,-100.00,WSW,237,28.0,36.0,69,0.00,,,-99.99,,2013-02-27 22:11:00,
2013-02-27 15:21:00,15.0,7.0,-100.00,SW,236,24.0,32.0,69,0.00,,,-99.99,,2013-02-27 22:21:00,
2013-02-27 15:31:00,15.0,7.0,-100.00,WSW,237,24.0,33.0,69,0.00,,,-99.99,,2013-02-27 22:31:00,
2013-02-27 15:41:00,15.0,6.0,-100.00,WSW,239,26.0,32.0,68,0.00,,,-99.99,,2013-02-27 22:41:00,
2013-02-27 15:51:00,15.0,6.0,-100.00,WSW,237,24.0,33.0,68,0.00,,,-99.99,,2013-02-27 22:51:00,
2013-02-27 16:01:00,15.0,6.0,-100.00,WSW,237,25.0,34.0,68,0.00,,,-99.99,,2013-02-27 23:01:00,
2013-02-27 16:11:00,15.0,5.0,-100.00,SW,236,25.0,32.0,65,0.00,,,-99.99,,2013-02-27 23:11:00,
2013-02-27 16:21:00,15.0,5.0,-100.00,WSW,237,27.0,35.0,66,0.00,,,-99.99,,2013-02-27 23:21:00,
2013-02-27 16:32:00,15.0,5.0,-100.00,WSW,239,24.0,32.0,64,0.00,,,-99.99,,2013-02-27 23:32:00,
2013-02-27 16:42:00,15.0,5.0,-100.00,SW,226,27.0,37.0,65,0.00,,,-99.99,,2013-02-27 23:42:00,
2013-02-27 16:52:00,15.0,6.0,-100.00,SW,232,26.0,35.0,67,0.00,,,-99.99,,2013-02-27 23:52:00,
2013-02-27 17:01:00,15.0,6.0,-100.00,SW,227,26.0,32.0,68,0.00,,,-99.99,,2013-02-28 00:01:00,
2013-02-27 17:11:00,14.0,6.0,-100.00,SW,220,29.0,37.0,69,0.00,,,-99.99,,2013-02-28 00:11:00,
2013-02-27 17:21:00,14.0,6.0,-100.00,SW,224,26.0,34.0,69,0.00,,,-99.99,,2013-02-28 00:21:00,
2013-02-27 17:32:00,14.0,6.0,-100.00,SW,219,27.0,35.0,70,0.00,,,-99.99,,2013-02-28 00:32:00,
2013-02-27 17:42:00,14.0,6.0,-100.00,SW,215,29.0,39.0,71,0.00,,,-99.99,,2013-02-28 00:42:00,
2013-02-27 17:51:00,14.0,6.0,-100.00,SW,215,28.0,37.0,71,0.00,,,-99.99,,2013-02-28 00:51:00,
2013-02-27 18:01:00,13.0,6.0,-100.00,SSW,213,30.0,40.0,71,0.00,,,-99.99,,2013-02-28 01:01:00,
2013-02-27 18:11:00,13.0,6.0,-100.00,SSW,210,30.0,40.0,73,0.00,,,-99.99,,2013-02-28 01:11:00,
2013-02-27 18:21:00,13.0,6.0,-100.00,SSW,209,32.0,41.0,71,0.00,,,-99.99,,2013-02-28 01:21:00,
2013-02-27 18:32:00,13.0,6.0,-100.00,SSW,208,33.0,42.0,71,0.00,,,-99.99,,2013-02-28 01:32:00,
2013-02-27 18:41:00,13.0,6.0,-100.00,SSW,206,32.0,39.0,70,0.00,,,-99.99,,2013-02-28 01:41:00,
2013-02-27 18:51:00,13.0,6.0,-100.00,SSW,203,30.0,38.0,70,0.00,,,-99.99,,2013-02-28 01:51:00,
2013-02-27 19:01:00,13.0,6.0,-100.00,SSW,199,31.0,37.0,71,0.00,,,-99.99,,2013-02-28 02:01:00,
2013-02-27 19:11:00,14.0,6.0,-100.00,SSW,198,29.0,35.0,71,0.00,,,-99.99,,2013-02-28 02:11:00,
2013-02-27 19:22:00,13.0,6.0,-100.00,SSW,199,30.0,38.0,72,0.00,,,-99.99,,2013-02-28 02:22:00,
2013-02-27 19:31:00,13.0,6.0,-100.00,SSW,200,31.0,37.0,73,0.00,,,-99.99,,2013-02-28 02:31:00,
2013-02-27 19:41:00,13.0,6.0,-100.00,SSW,200,31.0,37.0,73,0.00,,,-99.99,,2013-02-28 02:41:00,
2013-02-27 19:51:00,13.0,6.0,-100.00,SSW,200,31.0,37.0,73,0.00,,,-99.99,,2013-02-28 02:51:00,
2013-02-27 20:01:00,14.0,6.0,-100.00,SSW,203,29.0,34.0,72,0.00,,,-99.99,,2013-02-28 03:01:00,
2013-02-27 20:11:00,14.0,6.0,-100.00,SSW,200,30.0,34.0,72,0.00,,,-99.99,,2013-02-28 03:11:00,
2013-02-27 20:21:00,14.0,6.0,-100.00,SSW,199,27.0,32.0,72,0.00,,,-99.99,,2013-02-28 03:21:00,
2013-02-27 20:32:00,14.0,6.0,-100.00,SSW,200,28.0,33.0,72,0.00,,,-99.99,,2013-02-28 03:32:00,
2013-02-27 20:41:00,14.0,6.0,-100.00,SSW,202,28.0,34.0,69,0.00,,,-99.99,,2013-02-28 03:41:00,
2013-02-27 20:52:00,14.0,6.0,-100.00,SSW,198,27.0,31.0,70,0.00,,,-99.99,,2013-02-28 03:52:00,
2013-02-27 21:01:00,14.0,6.0,-100.00,SSW,200,26.0,32.0,69,0.00,,,-99.99,,2013-02-28 04:01:00,
2013-02-27 21:11:00,14.0,6.0,-100.00,SSW,203,26.0,31.0,69,0.00,,,-99.99,,2013-02-28 04:11:00,
2013-02-27 21:21:00,14.0,6.0,-100.00,SSW,208,24.0,32.0,69,0.00,,,-99.99,,2013-02-28 04:21:00,
2013-02-27 21:32:00,14.0,6.0,-100.00,SSW,210,24.0,29.0,70,0.00,,,-99.99,,2013-02-28 04:32:00,
2013-02-27 21:42:00,14.0,6.0,-100.00,SW,215,24.0,30.0,69,0.00,,,-99.99,,2013-02-28 04:42:00,
2013-02-27 21:51:00,14.0,6.0,-100.00,SW,215,25.0,30.0,68,0.00,,,-99.99,,2013-02-28 04:51:00,
2013-02-27 22:01:00,14.0,6.0,-100.00,SSW,213,26.0,31.0,68,0.00,,,-99.99,,2013-02-28 05:01:00,
2013-02-27 22:11:00,14.0,6.0,-100.00,SSW,210,24.0,29.0,68,0.00,,,-99.99,,2013-02-28 05:11:00,
2013-02-27 22:22:00,15.0,6.0,-100.00,SSW,213,24.0,29.0,68,0.00,,,-99.99,,2013-02-28 05:22:00,
2013-02-27 22:31:00,15.0,5.0,-100.00,SSW,206,25.0,30.0,66,0.00,,,-99.99,,2013-02-28 05:31:00,
2013-02-27 22:52:00,15.0,6.0,-100.00,SSW,208,25.0,30.0,67,0.00,,,-99.99,,2013-02-28 05:52:00,
2013-02-27 23:01:00,15.0,6.0,-100.00,SSW,209,24.0,30.0,67,0.00,,,-99.99,,2013-02-28 06:01:00,
2013-02-27 23:11:00,15.0,6.0,-100.00,SSW,209,26.0,29.0,66,0.00,,,-99.99,,2013-02-28 06:11:00,
2013-02-27 23:22:00,15.0,6.0,-100.00,SSW,209,26.0,30.0,66,0.00,,,-99.99,,2013-02-28 06:22:00,
2013-02-27 23:32:00,15.0,5.0,-100.00,SSW,209,24.0,29.0,66,0.00,,,-99.99,,2013-02-28 06:32:00,
2013-02-27 23:42:00,15.0,6.0,-100.00,SSW,210,25.0,30.0,66,0.00,,,-99.99,,2013-02-28 06:42:00,
2013-02-27 23:51:00,15.0,6.0,-100.00,SSW,210,26.0,32.0,65,0.00,,,-99.99,,2013-02-28 06:51:00,